Weather in Novopavlovka

Russia / Orenburg Oblast     51°08′26″N   55°35′57″E
temp.,
°C
wind,
m/s
gust,
m/s
humid.,
%
clouds,
%
prec.,
mm/h
press.,
hPa
HPBL,
m
10 august, wed
wed1023:00+23e475176 0.0 1016102
02:00+22ene225393 0.0 101612
05:00+21ese354939 0.0 101784
08:00+23se464285 0.0 1017217
11:00+27se343481 0.0 10181011
14:00+30e223120 0.0 10172195
17:00+31e222825 0.0 10162646
20:00+28se11365 0.0 101612
11 august, thu
thu1123:00+23n11434 0.0 101711
02:00+22sse48435 0.0 1017124
05:00+21s22488 0.0 101816
08:00+24sse23435 0.0 1019151
11:00+29ssw333139 0.0 1019990
14:00+30wsw222835 0.0 10181890
17:00+32sw332673 0.0 10172854
20:00+29nw113474 0.0 101618
12 august, fri
fri1223:00+27e343890 0.2 101772
02:00+24ne3447100 0.0 101848
05:00+21ne466699 0.1 1018115
08:00+22nne5766100 0.0 1019256
11:00+26nne554796 0.1 1019724
14:00+30n45320 0.0 10191982
17:00+30nnw66290 0.0 10182061
20:00+26n69302 0.0 1019411
13 august, sat
sat1323:00+20nne510420 0.0 1020241
02:00+17nne48555 0.0 1020167
05:00+15nne47640 0.0 1020130
08:00+18nne58550 0.0 1020245
11:00+24nne45340 0.0 1020858
14:00+28n55231 0.0 10191548
17:00+29n66225 0.0 10181884
20:00+26nne58335 0.0 1017225
14 august, sun
sun1423:00+21ne511500 0.0 1018232
02:00+19ne49610 0.0 1018181
05:00+17ne496713 0.0 1019151
08:00+20ne585839 0.0 1019274
11:00+25ene66400 0.0 10191223
14:00+29ene45300 0.0 10182025
17:00+30ne45250 0.0 10162404
20:00+27nne46330 0.0 1016121